Wind_Speed
23 20 19 18 18 18 17 15 15 16 16 15 15 14 15 16 17 16 15 16 18 20 21 21 22 22 21 20 19 18 18 19 20 21 22 23 24 24 24 25 26 28 30 32 33 34 36 36 37 39 40 42 43 43 43 43 43 44 44 45 45 45 46 46 45 44 45 44 43 43 42 40 38 37 38 40 40 39 38 38 38 38 38 38 38
22 21 20 18 18 18 17 16 16 16 17 16 15 15 16 17 17 16 15 16 18 20 21 21 22 22 21 21 20 19 20 20 21 22 24 24 24 25 25 26 28 30 32 34 36 37 37 37 37 39 40 42 43 43 43 43 43 44 45 45 45 45 45 45 44 43 43 43 42 42 41 38 37 37 38 39 39 38 37 36 37 37 37 38 39
23 22 20 17 17 17 17 16 16 17 17 16 16 16 17 17 17 16 16 16 18 20 21 21 21 21 21 21 20 20 21 22 22 24 25 25 25 26 27 28 30 32 34 36 37 37 35 34 35 37 39 41 42 42 43 43 44 44 44 44 44 45 45 44 42 42 42 42 42 41 39 36 36 37 38 38 39 38 37 36 37 37 38 38 39
23 22 19 16 15 16 17 17 17 18 18 16 16 17 18 18 18 17 17 17 18 19 20 20 20 21 21 21 21 22 23 23 24 26 26 27 27 27 29 31 33 34 34 34 33 31 30 31 33 35 37 39 40 41 42 43 43 43 44 44 44 44 44 42 41 41 41 41 41 39 36 35 35 36 38 38 38 38 37 36 36 37 38 39 39
24 22 19 16 14 16 16 17 18 18 18 16 17 18 19 18 18 17 17 18 18 19 19 18 19 20 21 22 22 23 24 25 27 28 28 28 28 30 31 32 32 31 30 30 29 29 29 30 31 33 35 37 38 40 41 42 42 42 43 43 44 43 42 40 40 40 41 40 40 38 35 34 35 36 38 38 38 37 35 35 36 37 38 39 40
24 22 19 16 14 15 16 17 18 19 18 17 18 19 19 19 18 18 18 18 18 19 19 19 20 21 21 22 22 23 25 26 28 28 28 29 31 31 30 29 28 28 28 28 29 29 30 30 31 32 34 36 38 39 40 40 41 41 42 43 43 41 39 39 40 40 41 40 38 36 34 34 35 36 37 38 37 37 35 34 35 36 37 38 40
25 23 20 17 15 16 17 18 19 19 18 17 19 20 20 19 19 19 19 19 19 20 20 21 21 21 22 22 23 24 25 26 28 28 28 30 32 30 27 28 29 29 29 28 29 30 30 31 32 33 34 36 37 38 39 39 40 40 41 42 41 39 38 39 40 40 40 40 37 34 33 34 35 36 37 37 36 36 35 34 33 34 36 39 40
26 24 21 18 16 17 19 19 20 20 19 18 20 21 20 20 19 19 19 20 21 21 21 21 21 21 22 22 22 24 25 26 28 28 29 30 30 28 28 30 31 30 29 29 30 30 31 32 32 33 34 35 36 37 37 38 39 40 41 40 38 37 38 39 39 40 40 38 35 33 33 34 35 35 35 35 34 34 34 33 32 33 36 40 41
26 24 21 19 18 19 20 21 22 22 20 19 21 21 21 21 20 19 20 21 21 21 20 21 21 21 21 22 23 24 25 27 29 29 29 30 29 30 31 31 30 30 30 30 30 31 31 32 32 33 33 34 34 35 36 37 38 39 39 38 37 36 38 38 38 39 39 37 34 32 32 33 34 34 34 33 33 33 33 32 32 34 37 41 42
26 23 22 21 21 21 21 22 23 23 21 21 21 22 21 21 20 20 22 22 22 21 21 21 22 22 22 23 24 25 27 28 29 28 29 29 29 30 31 31 30 30 30 30 31 31 32 32 31 31 32 33 33 34 35 36 37 38 37 36 35 36 37 37 38 38 38 35 32 31 32 33 34 34 33 32 33 32 32 31 33 36 39 40 41
25 23 23 23 23 22 22 23 24 24 22 22 23 22 22 22 21 22 23 23 22 22 22 23 23 23 24 24 25 26 27 29 28 28 28 29 30 30 31 31 30 30 31 31 31 32 32 31 30 30 31 32 33 34 35 36 36 36 35 34 35 36 37 37 37 38 36 33 31 31 32 33 34 33 32 32 31 31 32 33 35 38 40 40 39
25 23 25 25 23 22 22 24 25 24 23 23 23 23 23 22 22 23 24 24 23 23 23 24 24 25 25 25 26 26 27 28 28 28 29 29 30 31 32 31 30 31 31 30 31 32 31 29 29 30 31 33 34 34 35 35 36 35 34 33 34 35 36 36 37 37 35 32 31 31 32 32 33 33 32 32 31 31 33 34 36 39 41 40 39
26 25 26 25 22 22 23 24 24 23 23 23 23 22 22 22 22 24 24 25 24 23 24 25 25 26 26 26 26 26 26 27 28 29 30 31 32 32 32 31 30 31 31 30 31 32 30 29 29 31 32 33 34 34 34 35 35 34 32 33 34 34 35 36 36 36 33 31 31 31 31 32 32 32 33 33 32 32 33 35 37 39 40 41 41
28 27 26 23 21 21 23 23 24 23 23 23 22 21 21 22 23 24 25 26 25 24 25 25 26 26 27 26 26 26 27 28 29 30 31 32 32 32 32 30 30 31 31 31 32 31 29 29 30 32 33 33 33 34 34 35 34 32 31 32 33 34 35 36 35 34 32 30 30 31 31 31 31 32 33 33 33 33 34 34 37 39 41 43 44
30 28 24 21 20 21 22 23 23 23 23 22 22 22 23 23 24 25 27 27 26 25 26 26 27 27 26 26 26 26 28 29 31 31 32 32 32 32 31 30 30 32 32 31 31 30 29 29 31 33 33 33 33 34 34 34 33 31 31 31 33 34 35 35 34 32 31 30 30 30 30 31 31 32 33 33 34 34 35 36 38 40 42 44 45
30 26 22 21 21 22 23 23 23 23 23 23 24 24 25 25 26 27 28 28 27 27 27 27 27 26 25 26 27 27 28 31 32 33 33 32 31 30 29 29 31 32 32 32 30 29 29 30 32 33 33 33 34 34 34 34 32 31 30 31 33 34 35 35 33 31 30 30 30 30 31 31 32 33 34 34 34 35 35 37 39 40 42 43 43
28 25 23 22 22 23 23 23 23 24 24 25 25 26 27 27 27 28 29 28 28 28 28 27 27 26 25 26 27 27 29 32 34 34 34 33 32 30 28 29 31 33 34 32 29 28 30 31 31 32 33 34 34 34 34 32 31 29 29 30 33 34 35 34 32 30 30 30 30 31 31 31 32 33 34 35 35 35 36 37 38 40 41 42 42
28 26 25 23 23 23 22 22 23 24 25 25 26 26 27 27 27 28 28 28 28 27 27 27 26 25 25 26 27 28 31 33 35 35 35 35 32 28 26 28 31 33 32 29 27 29 31 31 31 32 34 34 34 34 33 31 29 27 28 30 33 34 34 33 31 30 30 31 31 30 30 30 31 33 35 36 36 36 37 37 38 40 42 42 43
29 27 26 25 25 23 22 23 24 25 26 26 25 25 26 26 27 28 28 27 26 26 26 26 25 25 26 28 30 31 33 34 35 35 37 37 32 26 25 29 31 30 29 29 30 32 33 32 33 34 34 34 34 33 32 30 28 26 28 31 32 34 34 32 31 30 31 31 30 29 29 29 30 33 35 37 37 38 38 39 40 41 42 43 44
31 29 28 27 26 25 24 25 26 27 28 26 24 24 25 26 27 27 26 25 25 25 25 26 27 28 30 33 34 34 35 35 34 34 36 35 31 28 29 30 29 29 30 33 34 34 33 33 34 34 34 34 33 31 30 29 27 27 28 30 32 33 33 32 30 30 30 30 29 28 28 28 30 32 35 37 38 38 39 40 41 42 42 44 45
31 30 30 29 28 27 26 27 27 27 27 25 24 25 25 25 25 24 24 24 25 26 27 29 31 33 34 36 36 35 35 35 35 34 33 31 30 31 32 32 30 30 31 32 32 32 32 33 33 33 33 33 32 30 29 28 27 28 29 31 32 33 33 31 30 30 30 30 29 28 27 28 30 32 35 36 37 38 39 41 42 42 43 44 45
31 30 30 29 28 27 26 26 26 26 27 26 25 24 23 23 23 23 24 25 26 28 30 32 34 35 36 36 36 36 36 36 35 34 32 31 33 36 35 33 32 31 30 30 31 31 32 33 33 33 32 32 31 30 29 28 28 29 30 31 31 32 32 31 30 30 30 30 29 28 27 27 29 32 34 36 36 37 38 40 42 43 43 44 45
30 29 29 27 26 25 26 26 26 26 26 26 24 23 23 23 24 25 26 27 29 31 32 34 35 36 36 37 37 36 36 35 34 32 31 32 34 36 35 33 32 31 30 30 30 31 32 32 32 32 32 32 31 30 29 29 29 29 30 31 31 31 31 30 30 30 30 29 28 28 27 27 29 31 34 35 36 36 37 39 40 42 43 44 45
29 28 26 25 24 24 25 25 25 26 26 25 24 24 24 24 25 27 27 29 31 33 34 35 36 36 37 37 37 36 35 33 32 33 33 34 34 34 34 33 31 30 30 30 30 31 32 32 32 32 32 32 31 30 30 30 30 31 31 30 30 30 30 30 30 30 30 29 28 28 27 27 28 31 33 35 35 36 37 38 39 40 41 43 44
28 26 25 24 25 25 26 26 26 26 26 25 24 24 25 26 27 29 30 32 34 35 37 37 37 37 36 35 34 34 33 32 32 33 33 33 33 33 32 31 31 30 30 30 30 31 31 32 33 32 32 32 32 31 31 31 31 32 31 30 29 29 30 31 31 30 30 29 28 28 27 27 28 31 33 34 35 36 36 37 37 38 39 41 42
26 25 25 25 25 26 25 25 25 25 24 24 25 25 26 28 30 32 33 35 36 37 37 37 36 36 35 33 32 31 31 32 32 33 33 33 33 32 31 31 31 31 30 30 31 31 31 32 33 33 33 32 32 32 31 31 32 32 31 30 30 30 30 31 31 31 30 29 28 28 27 27 28 30 32 33 35 35 36 36 36 37 38 39 40
25 25 25 26 26 25 24 23 24 24 24 24 25 26 28 30 32 33 34 35 36 36 36 36 35 34 33 32 31 31 31 32 32 32 32 32 31 31 30 31 31 31 31 31 31 31 32 32 32 33 32 32 32 32 32 32 32 32 32 31 30 30 31 32 32 31 30 29 28 28 27 27 28 30 31 33 34 35 36 35 35 36 38 39 39
26 26 26 26 25 24 23 23 23 23 24 25 25 27 30 31 32 33 33 34 34 34 34 34 34 33 32 32 31 30 31 31 32 31 31 31 30 30 30 31 31 31 31 31 31 31 32 32 32 32 32 32 32 32 32 32 32 32 32 32 31 31 32 33 32 31 30 29 28 27 27 28 28 28 30 32 33 34 35 34 34 36 37 38 38
27 27 27 26 25 24 24 24 24 25 26 26 28 30 32 32 33 33 33 33 33 32 32 32 31 31 31 31 30 29 29 30 31 30 30 30 30 30 31 31 31 31 32 32 31 32 32 32 33 32 32 32 32 32 33 33 33 33 33 33 32 31 32 33 33 31 30 29 28 27 28 28 27 28 29 32 33 33 34 33 34 35 36 37 37
26 26 26 26 25 25 25 25 27 28 28 29 30 32 33 33 33 33 33 33 32 32 32 32 31 31 31 30 29 28 28 30 30 30 30 30 30 30 31 31 31 32 32 32 32 32 33 33 33 34 34 33 33 34 34 34 34 34 33 33 32 32 33 34 33 32 30 29 28 28 28 28 27 27 29 31 32 33 33 32 33 34 35 36 36
25 25 25 25 25 26 27 28 29 30 30 31 33 33 33 33 33 33 33 33 32 32 32 32 32 32 31 30 28 27 29 30 31 31 31 30 29 30 31 31 32 32 32 32 32 33 33 34 34 35 35 35 35 35 35 35 35 34 33 32 32 33 34 35 34 32 30 29 29 28 29 28 28 27 29 30 31 32 32 31 32 33 34 35 36
26 25 25 25 26 28 30 30 31 31 32 34 34 34 34 34 34 34 33 32 32 32 32 32 32 32 32 30 28 28 29 31 31 32 31 30 30 30 31 32 32 32 32 32 33 34 34 35 35 36 36 36 36 36 36 36 35 33 32 32 33 34 35 36 35 32 31 30 29 28 29 29 28 27 28 30 30 31 31 31 31 32 33 34 35
29 27 26 26 28 30 31 31 32 32 33 34 35 36 36 35 35 35 34 32 32 32 32 33 33 32 31 30 28 28 30 31 32 33 32 31 30 31 32 32 32 33 33 33 34 35 35 36 36 36 35 35 35 35 35 35 34 33 33 33 34 35 36 36 35 34 32 30 29 29 29 29 28 27 28 29 30 30 30 31 31 31 32 33 34
32 30 28 28 30 31 32 31 31 32 34 36 38 38 37 36 36 36 34 33 32 32 33 33 33 33 32 30 29 29 30 31 32 33 33 31 31 31 32 32 32 33 34 34 35 35 36 36 36 35 34 34 34 34 34 34 34 33 34 34 34 35 36 37 36 35 33 31 30 29 29 29 28 27 27 28 29 29 30 30 31 31 31 32 32
32 30 28 29 30 31 31 31 32 35 38 39 39 39 37 36 36 36 35 34 33 34 34 34 34 33 33 32 31 31 31 32 33 33 32 32 32 32 32 32 33 34 35 35 35 36 36 36 36 35 34 34 35 35 35 34 33 33 33 33 34 35 37 38 37 36 34 32 31 30 30 30 28 27 27 27 28 28 29 30 30 30 30 31 31
28 27 26 28 30 31 32 33 35 38 39 39 38 38 37 35 35 36 36 35 35 35 35 35 34 34 34 34 33 33 33 33 33 33 33 33 32 32 32 32 34 35 36 36 35 36 36 36 36 36 36 36 37 37 36 35 33 32 32 34 35 36 37 38 38 36 35 33 32 31 30 30 28 27 26 27 27 27 28 29 29 29 29 30 31
27 27 29 30 32 33 35 35 36 38 39 39 39 39 38 36 35 36 36 36 36 36 35 35 34 34 35 35 35 34 34 33 33 33 33 33 32 32 32 33 35 36 35 35 36 37 38 38 37 37 37 39 39 38 36 34 32 32 32 35 38 38 38 37 37 36 35 34 33 31 30 30 28 27 26 26 26 27 28 29 28 29 29 29 29
30 31 32 33 34 35 36 37 38 39 41 41 41 42 41 38 36 35 35 36 37 37 35 34 34 34 35 35 35 35 35 34 34 33 32 32 32 32 33 34 35 36 36 36 38 39 39 38 38 38 38 38 37 35 32 30 31 32 34 36 37 37 36 36 37 37 36 36 34 32 31 30 29 27 26 26 26 27 28 28 28 28 29 29 29
33 33 34 34 35 35 36 37 37 38 38 38 39 40 40 37 35 35 36 37 36 35 35 34 34 34 35 35 35 35 35 35 35 33 32 31 31 32 34 35 36 36 37 39 40 39 38 38 38 38 38 37 35 32 30 30 31 34 35 35 35 35 35 36 36 37 36 36 34 32 31 30 28 27 26 26 26 27 27 28 28 28 29 29 28
35 35 35 35 36 36 36 38 38 38 38 37 35 35 35 35 35 36 36 34 34 33 33 33 34 34 35 35 34 35 35 35 34 32 31 31 32 34 35 36 36 38 39 40 39 38 37 37 37 37 37 35 34 31 30 29 30 31 31 31 32 33 34 34 35 35 36 36 34 32 31 30 28 26 26 26 26 26 27 27 27 28 28 28 27
36 36 36 36 37 38 39 40 41 40 40 38 37 36 36 35 35 34 32 31 32 32 32 32 33 34 34 34 34 34 34 32 31 30 31 33 34 36 36 37 38 39 39 38 36 35 36 36 36 36 35 34 33 31 30 30 30 30 30 30 32 33 34 34 34 34 36 36 34 32 31 30 28 26 26 26 26 26 26 27 27 27 27 27 27
36 37 38 39 40 41 41 40 39 38 37 37 37 36 35 34 32 31 31 31 32 32 32 32 33 34 34 34 33 32 30 29 30 31 33 35 36 37 38 39 39 38 36 34 34 34 35 35 35 35 34 32 31 30 29 29 29 30 31 32 33 34 34 34 34 34 35 35 34 32 31 29 28 27 26 26 26 26 26 26 27 27 27 27 27
38 39 41 41 41 40 39 37 35 34 34 34 34 33 33 33 33 32 32 32 32 32 33 33 32 32 33 32 32 31 31 32 33 34 35 36 37 38 38 38 36 35 33 32 32 33 33 33 33 32 32 30 29 29 29 29 29 30 31 32 32 33 33 34 35 34 34 33 33 32 30 29 28 27 27 26 26 26 26 26 26 26 27 27 27
40 40 40 39 38 37 36 35 34 33 33 32 32 32 32 33 33 32 33 33 33 33 32 32 32 32 32 33 33 35 35 36 36 36 37 38 39 39 37 35 33 32 32 31 31 32 32 31 30 29 29 28 28 28 28 29 30 30 30 31 31 31 31 32 33 33 33 32 32 31 29 28 28 28 28 27 26 26 26 26 26 26 27 27 27
37 37 36 35 35 34 34 33 33 32 32 32 32 32 32 32 32 32 32 33 33 32 32 32 32 33 33 34 35 36 37 37 37 38 39 40 39 37 35 33 32 32 32 31 30 29 29 27 27 26 26 27 27 28 28 29 29 29 30 30 30 30 29 29 30 31 31 31 31 29 28 28 28 29 29 28 26 26 26 26 26 26 27 27 27
33 33 34 34 34 33 33 32 31 31 31 31 30 30 30 30 30 30 31 31 31 32 32 33 33 33 34 35 36 36 36 37 38 39 40 39 36 33 32 32 32 31 31 29 28 27 26 25 25 25 25 26 27 28 28 29 30 30 30 30 29 28 28 28 27 27 28 28 29 28 27 27 28 28 29 28 27 27 26 26 26 27 27 27 26
31 31 32 33 33 33 32 31 30 30 29 29 29 29 29 29 30 30 30 31 31 32 32 33 33 34 34 35 35 36 36 38 39 38 36 33 31 30 30 31 31 29 28 27 26 26 25 25 24 24 24 25 27 28 28 29 29 29 29 29 28 27 27 27 26 25 25 26 26 26 26 27 28 28 28 28 28 27 27 27 27 27 27 26 26
30 29 29 30 30 29 28 28 28 28 28 29 29 28 28 29 30 31 31 31 31 32 32 33 33 34 35 36 37 37 37 36 36 34 31 29 28 28 29 29 28 27 26 25 25 25 25 25 24 23 24 24 25 27 28 28 28 27 27 27 27 27 27 26 25 24 24 25 25 25 26 28 28 27 28 28 27 27 27 27 27 27 27 26 26
29 28 28 29 30 30 29 28 28 28 28 29 29 29 30 31 31 32 32 32 32 32 33 34 34 34 35 36 37 36 34 32 31 31 30 29 28 28 28 28 27 26 25 24 24 24 24 25 24 24 24 25 27 28 29 29 29 29 28 28 27 27 26 26 25 24 24 25 25 25 27 28 28 27 27 27 27 27 27 27 27 27 27 27 27
28 28 28 29 31 32 33 32 30 29 30 31 32 32 33 33 34 33 33 34 34 34 34 34 33 32 32 32 32 31 30 28 28 29 30 29 28 27 27 27 27 26 24 24 24 24 25 25 25 25 26 27 28 28 28 28 28 27 27 26 26 25 25 24 23 24 24 24 25 26 27 27 27 27 27 27 26 26 27 27 28 28 27 27 27
28 28 29 30 31 33 33 33 33 33 33 34 35 35 36 36 36 36 36 36 36 36 35 34 34 33 32 31 29 28 27 27 27 28 29 29 28 27 26 26 26 25 24 24 25 25 25 25 25 25 25 25 25 25 24 24 23 23 22 23 23 23 21 20 20 21 22 23 24 26 27 27 28 28 27 27 27 27 27 28 28 28 28 28 28
Wind_Direction
249 248 244 244 246 248 250 252 258 266 270 273 277 281 283 283 285 288 288 286 283 279 275 269 267 267 265 264 266 271 278 283 288 291 291 292 294 297 299 303 304 303 302 302 301 300 300 301 302 302 302 302 304 305 305 306 307 307 308 308 309 310 311 314 315 315 316 316 317 319 320 320 318 317 318 318 318 319 319 318 317 316 315 315 317
246 245 244 245 246 248 250 252 258 265 270 274 279 283 284 286 289 289 285 282 279 277 273 268 265 264 263 264 267 273 278 283 287 290 291 293 295 297 300 301 301 301 301 300 300 300 300 301 301 300 300 301 302 303 304 305 306 307 307 308 309 310 312 314 315 315 316 318 320 321 321 320 318 317 318 319 320 321 320 318 317 317 317 318 319
243 245 245 245 245 248 251 253 259 265 269 275 280 283 286 287 289 288 284 279 275 273 272 268 265 263 263 264 268 273 277 282 286 289 291 293 295 297 298 298 298 299 300 301 301 301 301 301 300 298 298 299 301 302 303 305 306 306 308 309 309 311 313 314 314 316 318 319 321 322 320 318 317 318 320 321 321 322 321 319 319 319 319 320 321
243 246 246 244 244 248 252 254 259 264 269 276 281 284 286 286 286 285 282 278 274 271 269 267 264 263 263 265 269 273 277 282 285 287 290 293 295 297 298 298 298 299 300 302 303 303 302 301 299 297 297 298 300 301 303 304 305 306 308 308 309 311 313 313 314 316 319 320 321 321 319 318 318 319 321 322 322 322 322 321 320 321 321 322 323
245 247 246 244 245 250 255 257 260 264 269 276 280 283 284 285 284 282 280 278 274 270 269 267 265 264 265 268 271 275 279 281 284 287 292 295 297 299 299 300 300 300 301 304 304 303 303 302 300 298 298 299 300 301 303 304 305 307 307 308 310 312 312 313 315 317 319 321 320 319 319 319 320 321 322 323 323 323 323 322 322 323 323 324 324
246 247 246 244 247 254 258 259 261 264 269 274 278 280 283 283 281 279 278 277 273 269 268 267 267 267 269 272 275 278 280 282 286 290 295 298 299 298 300 302 302 302 304 304 304 305 305 304 303 302 301 300 300 301 303 304 306 306 307 308 310 312 312 314 317 319 320 321 320 319 319 320 322 323 323 323 323 324 324 324 324 324 324 324 326
247 248 247 246 250 257 260 261 262 264 267 271 275 278 280 280 278 277 277 276 272 268 267 267 269 271 273 275 277 280 283 286 290 293 296 298 297 297 301 304 305 305 306 306 307 307 307 306 305 303 301 300 301 302 304 305 306 306 307 308 310 311 313 315 318 319 321 322 321 320 320 322 324 324 324 325 325 324 323 323 323 323 325 327 329
247 247 248 250 254 259 261 261 262 263 265 269 273 276 277 276 275 275 275 274 271 270 271 271 273 274 276 278 281 284 287 289 291 293 296 297 297 298 303 306 306 307 307 308 308 307 306 306 304 302 301 301 302 303 304 305 306 307 308 309 310 311 314 317 319 320 322 322 321 320 321 323 325 326 325 325 325 323 321 321 322 325 329 332 333
247 247 249 253 257 260 262 260 260 262 264 267 270 273 274 273 272 271 271 270 271 272 274 275 276 278 279 282 284 286 288 289 291 295 297 298 298 300 303 304 306 307 308 307 306 305 305 305 303 302 302 302 302 304 306 307 307 308 309 309 310 312 316 318 320 321 322 322 321 320 322 324 326 326 325 325 323 320 319 323 328 332 334 335 336
248 248 251 256 260 262 261 259 259 261 263 266 268 270 271 271 270 268 267 267 269 271 273 275 277 280 282 284 286 287 288 289 293 296 297 297 297 299 301 302 304 306 305 305 304 303 304 304 302 302 302 303 304 306 308 308 308 308 309 309 311 314 318 320 321 322 322 321 320 321 323 325 326 326 326 325 321 319 322 329 334 336 337 337 337
247 249 254 257 261 263 262 259 258 261 263 265 266 267 268 268 267 266 265 265 266 269 272 274 277 280 283 284 286 288 289 291 294 296 296 296 296 297 299 301 303 304 303 303 302 302 303 303 302 302 304 305 308 309 310 309 309 309 309 310 312 316 319 321 322 322 321 320 320 321 323 325 327 327 326 324 322 324 330 336 338 339 338 337 337
247 249 253 257 262 264 262 258 258 261 263 264 266 267 267 267 266 264 263 263 265 267 271 274 278 281 284 286 287 288 289 291 293 295 295 295 295 296 298 300 301 301 301 301 301 302 303 303 303 305 307 308 310 310 310 309 309 309 309 311 314 317 320 322 322 322 321 320 319 321 324 327 328 328 326 325 328 333 337 340 341 340 339 338 339
246 248 253 259 264 263 260 258 259 261 262 263 265 267 267 265 264 263 263 264 266 269 273 277 281 283 285 287 287 286 286 288 290 292 292 292 292 294 296 297 299 300 300 301 301 302 303 303 305 307 309 310 311 310 310 310 310 310 310 312 316 319 321 322 322 322 320 318 318 321 325 328 329 328 328 330 334 336 338 341 341 341 340 341 342
245 249 256 262 263 259 257 257 258 259 260 261 264 265 264 262 262 263 265 267 270 273 276 279 282 284 285 286 286 286 287 288 288 289 288 289 290 292 294 296 298 300 301 301 302 303 302 304 307 309 310 311 311 310 310 311 311 311 311 314 318 320 321 322 322 320 317 316 317 321 327 330 331 331 331 333 336 336 338 341 341 342 344 345 344
245 251 257 259 255 253 253 254 256 257 258 259 261 262 262 261 262 263 265 270 274 276 277 279 281 282 284 286 287 288 289 288 288 289 289 288 290 292 293 296 298 300 300 301 302 302 302 305 308 309 310 311 311 311 312 313 313 311 312 316 319 320 321 321 320 318 315 315 317 323 330 333 334 333 333 336 336 337 339 342 343 345 347 346 344
246 251 251 248 246 249 252 254 254 255 256 258 259 260 261 261 261 263 268 272 275 276 277 278 279 281 282 285 287 289 291 290 290 291 291 291 292 292 292 295 298 300 301 301 300 300 303 306 308 308 309 311 311 312 313 315 313 311 312 316 319 320 321 321 319 316 314 314 318 325 332 335 336 336 336 337 337 337 340 342 344 346 347 345 344
245 245 242 241 244 249 253 256 257 258 259 260 260 260 262 262 263 266 269 272 274 275 277 278 279 281 283 285 287 290 291 291 291 292 292 292 292 289 289 295 299 301 301 299 296 299 304 307 307 308 310 311 312 313 315 315 313 311 312 316 319 321 321 320 317 314 313 314 319 326 333 338 339 338 337 337 337 338 340 342 343 345 346 345 345
242 239 237 240 245 252 258 262 264 264 262 261 263 265 265 266 266 267 268 271 273 275 277 279 281 283 285 286 287 290 292 293 295 295 296 296 292 285 286 296 301 302 300 295 295 302 306 307 308 309 311 312 312 313 315 315 313 311 313 316 320 322 322 320 317 314 313 315 320 328 335 339 339 338 336 336 338 339 340 342 344 345 345 346 347
239 237 237 241 248 257 264 267 270 269 263 263 267 268 267 266 266 267 269 272 274 275 277 280 282 285 286 287 289 292 294 296 297 296 296 295 290 283 288 299 302 301 297 293 297 304 307 307 308 310 311 312 312 313 316 315 312 310 313 317 321 322 322 319 316 314 313 315 321 329 335 338 338 336 335 336 337 339 341 343 344 344 345 347 348
240 239 240 245 252 261 267 271 274 272 265 265 267 264 264 265 265 268 270 271 272 274 276 280 282 284 286 288 291 294 295 296 296 295 295 292 286 284 291 298 299 295 291 292 297 302 304 306 308 310 311 311 311 313 315 314 311 309 311 316 320 322 322 319 315 313 312 315 321 329 334 336 336 335 335 335 336 338 341 343 343 344 345 347 348
241 242 245 250 256 263 268 271 271 266 262 263 264 261 261 263 264 265 267 269 272 275 277 280 282 284 286 288 291 293 294 294 294 293 291 287 286 291 297 299 298 294 292 293 296 299 302 305 308 309 309 309 310 312 313 312 310 308 309 313 317 320 320 317 314 312 311 313 319 326 331 334 335 334 333 333 335 338 340 342 342 344 346 347 348
244 247 250 255 260 263 265 267 266 261 260 262 262 259 258 260 261 264 267 271 274 277 278 280 282 285 288 289 290 290 291 292 293 292 287 283 286 293 297 298 297 295 295 295 297 299 302 305 307 308 308 308 309 310 311 311 309 307 308 311 314 317 317 316 312 310 309 311 317 322 327 331 333 332 331 331 333 337 340 341 342 344 346 347 348
248 251 254 257 259 259 259 261 260 256 256 256 255 255 257 260 264 267 270 274 276 277 279 281 283 286 288 288 287 288 288 290 290 289 288 287 288 292 295 295 295 296 296 297 297 300 303 305 306 307 306 307 308 309 309 309 307 306 307 310 313 314 315 313 311 308 307 309 313 318 323 328 331 330 329 330 332 336 339 341 342 344 346 347 348
250 252 255 255 253 252 252 253 251 250 250 252 254 257 261 264 269 272 274 275 276 278 280 282 284 285 285 285 286 286 287 288 288 287 288 289 290 292 293 293 295 296 296 296 298 301 303 305 306 306 306 307 308 308 308 307 306 305 307 309 311 312 313 312 310 307 305 307 310 314 320 325 328 327 327 329 332 336 338 340 342 345 347 347 348
249 251 250 249 248 247 248 248 248 249 250 253 256 260 265 268 272 274 275 276 277 279 281 282 283 283 283 284 285 286 287 288 288 288 288 289 290 291 291 292 294 294 295 296 299 301 303 305 306 306 307 308 308 307 306 305 305 305 306 307 309 310 311 312 309 306 303 304 307 311 316 321 323 323 325 328 332 334 336 338 340 344 347 347 347
247 247 245 245 245 245 246 246 248 250 252 255 261 265 269 273 274 275 276 277 278 280 281 282 282 282 282 284 284 285 286 287 287 286 287 287 288 289 290 291 292 293 294 297 299 301 303 304 306 307 308 308 307 306 304 304 305 305 305 306 306 307 310 311 309 304 301 301 303 308 313 317 318 320 324 328 330 332 334 336 339 344 348 348 347
244 242 240 240 242 244 246 247 250 254 258 263 269 272 275 276 276 277 277 278 279 280 281 281 281 281 282 284 285 285 285 284 284 284 284 285 287 288 288 290 291 292 295 297 299 301 302 304 306 307 308 308 307 306 304 304 305 305 305 304 304 304 308 310 308 303 299 297 300 305 309 312 314 318 323 326 328 330 332 334 338 344 347 347 346
239 238 238 240 243 246 248 251 255 260 265 270 275 278 278 278 278 279 279 280 280 281 281 282 283 283 284 285 285 283 282 281 282 283 283 284 285 286 287 288 290 292 294 296 298 300 302 304 305 306 306 307 306 305 304 304 304 304 304 302 301 301 305 308 306 301 295 294 297 301 304 306 310 316 321 324 326 328 330 333 339 344 345 344 346
237 239 242 245 248 251 254 258 262 265 268 273 278 280 280 280 281 282 282 281 281 281 282 283 285 285 285 285 284 282 280 280 281 282 282 282 283 285 286 288 289 291 294 296 298 300 302 303 304 304 304 304 304 304 304 304 304 303 302 300 298 299 303 305 303 298 293 292 295 297 299 303 308 314 318 321 324 326 328 333 340 342 342 342 345
237 240 244 248 252 255 259 262 265 267 271 275 279 280 280 281 282 282 282 281 281 281 282 282 284 285 284 283 282 281 279 279 280 280 280 281 283 285 286 288 290 291 294 296 298 300 301 302 302 302 302 303 302 302 302 302 302 301 300 299 296 297 301 302 299 295 291 290 291 293 296 301 307 311 315 318 321 324 327 333 339 339 339 342 345
236 239 244 250 254 258 262 264 266 269 274 277 280 280 280 280 281 280 280 279 280 281 281 282 283 283 283 283 282 280 279 278 279 279 280 281 283 285 286 288 290 292 294 296 298 299 300 301 301 301 302 301 301 301 301 301 301 300 299 298 297 297 299 299 296 292 288 285 287 291 295 301 305 308 311 315 319 323 327 332 336 337 338 342 345
235 238 243 249 255 259 263 266 268 273 277 280 280 280 279 280 279 278 278 278 279 281 282 282 282 283 283 283 281 279 278 278 279 280 281 282 283 285 286 288 290 292 294 296 297 298 299 300 301 301 301 301 300 300 300 299 299 299 298 297 296 296 298 297 294 290 286 284 286 289 293 297 301 305 309 312 316 321 325 330 334 336 338 341 344
236 238 242 249 256 260 263 267 272 276 279 280 279 279 279 279 278 278 278 279 281 282 283 283 283 283 282 282 280 278 277 277 278 280 281 282 284 285 287 289 291 293 294 295 296 297 299 300 301 301 300 300 298 298 298 299 299 298 297 295 295 296 297 297 294 289 285 283 284 286 289 293 298 303 306 310 314 319 324 328 332 334 338 341 342
241 243 246 251 256 260 264 268 273 276 277 278 278 278 277 278 278 278 279 280 282 283 283 283 284 283 283 282 280 277 276 276 277 279 281 283 285 286 288 290 291 292 293 294 295 297 298 299 300 299 299 298 297 298 300 300 299 299 298 296 296 296 297 297 293 288 283 281 280 282 286 290 295 301 305 308 312 317 322 326 329 333 338 340 340
246 248 251 254 257 261 266 270 274 276 275 274 274 274 275 276 277 277 278 280 283 284 284 284 285 284 283 281 278 276 275 275 277 279 281 283 284 286 288 290 291 292 293 294 296 297 298 299 299 298 298 298 299 301 301 300 299 299 299 298 298 296 296 295 292 286 282 279 278 279 283 288 294 299 303 305 309 315 320 322 326 332 336 338 338
251 251 254 258 261 265 269 272 275 276 275 273 271 271 273 275 274 275 277 280 282 283 284 284 284 283 281 280 278 276 276 276 278 279 281 283 285 288 289 290 290 291 292 293 295 296 297 298 298 297 297 298 299 301 300 298 296 297 299 301 300 297 295 293 290 286 283 279 277 277 281 286 291 296 300 303 308 313 316 319 324 330 335 337 338
254 255 257 261 264 267 269 271 273 273 273 273 273 272 273 274 273 273 276 279 280 282 282 282 281 280 279 279 278 277 277 278 279 280 282 285 287 288 288 288 289 290 291 293 294 296 297 297 297 297 297 298 299 299 298 296 294 295 299 302 301 298 295 292 289 287 283 279 276 275 278 282 288 294 299 303 307 311 313 317 322 329 333 336 337
260 261 263 265 267 269 270 272 274 273 271 272 271 269 271 273 272 272 275 279 279 279 279 279 278 278 278 278 278 278 278 279 279 281 284 286 287 287 287 288 289 291 292 294 296 297 297 297 297 298 299 299 299 299 299 299 298 298 299 300 300 299 296 292 289 286 283 278 275 275 278 282 288 294 298 302 304 307 310 314 321 327 332 335 336
267 267 268 269 269 269 270 272 275 274 273 274 272 267 266 269 271 274 278 280 278 277 277 277 277 277 277 277 278 279 279 280 282 284 285 286 285 286 287 289 290 292 294 296 296 297 297 298 299 300 301 301 301 301 302 302 301 298 296 298 299 298 295 292 289 287 283 277 274 275 278 281 286 291 295 298 302 305 308 313 319 325 329 333 335
269 268 268 268 269 271 272 275 276 276 276 277 275 271 269 272 275 278 280 279 276 275 276 276 276 276 276 277 278 280 281 283 285 285 284 283 284 286 288 289 291 293 295 296 297 297 298 300 301 302 302 303 303 302 301 301 300 298 297 297 297 295 293 291 290 287 283 277 273 272 275 279 283 288 292 296 299 303 307 311 316 321 325 330 332
265 266 267 268 271 274 277 279 279 278 276 275 274 273 275 276 276 276 276 276 275 274 275 275 275 276 277 277 280 281 282 283 282 281 281 282 284 287 289 291 293 294 295 295 296 298 299 300 301 302 302 302 303 302 300 298 297 296 295 295 295 293 292 291 289 286 283 277 272 270 273 278 282 287 291 294 297 301 304 308 312 317 323 328 330
266 268 271 274 277 279 280 281 279 277 275 273 273 274 274 274 273 273 273 273 273 272 273 273 273 274 276 278 280 279 278 278 279 280 282 284 286 288 290 292 294 294 293 294 296 297 299 299 300 300 300 300 301 300 299 298 299 299 298 297 296 294 293 291 289 285 282 277 271 269 272 278 282 285 289 292 295 299 302 305 309 315 322 326 328
271 274 276 278 279 280 279 277 276 275 273 272 271 272 272 271 271 271 272 271 271 272 272 272 271 272 276 278 278 276 276 278 281 283 285 287 288 290 292 293 293 292 292 294 296 297 298 298 298 297 298 298 297 296 297 300 304 305 303 302 300 297 294 292 289 286 282 276 269 268 272 278 282 285 288 291 294 298 301 303 307 314 320 324 325
274 275 276 276 276 275 274 273 272 272 271 270 270 269 268 268 269 270 271 271 271 272 272 272 272 273 275 275 275 276 278 281 284 286 287 288 290 292 293 292 291 291 294 295 296 296 297 297 297 297 297 296 295 296 298 302 305 305 305 305 305 302 298 294 290 287 282 273 266 266 272 278 282 285 287 290 294 297 299 303 307 312 318 321 322
271 271 270 270 269 269 269 269 269 269 268 268 269 269 269 269 270 270 270 271 271 272 272 272 272 274 275 274 275 277 280 283 285 286 288 289 291 291 291 290 290 292 293 294 294 295 296 297 297 298 299 298 296 297 298 300 302 304 305 307 308 307 304 299 293 287 281 272 265 266 272 277 281 285 289 292 296 297 299 302 307 310 314 318 319
265 265 265 266 266 266 266 267 268 268 268 269 269 270 270 271 271 270 270 270 271 271 271 271 272 273 273 275 277 279 282 284 285 287 288 288 288 288 287 287 288 289 290 291 293 295 296 296 297 298 299 299 298 297 297 298 299 300 303 306 308 309 309 305 297 288 279 271 265 266 273 278 282 286 290 294 297 298 300 302 305 308 311 315 317
260 262 264 265 266 266 266 267 267 267 268 270 270 271 271 270 270 269 269 270 270 271 272 273 274 274 275 277 279 281 283 285 286 286 287 286 285 284 283 284 286 286 287 290 292 294 294 296 297 298 298 298 298 299 299 299 299 299 300 303 305 306 307 306 299 288 276 267 264 268 274 279 282 286 290 293 295 297 299 301 302 305 309 313 315
256 258 260 263 266 267 266 266 266 268 270 271 271 270 270 270 271 271 272 272 272 273 274 275 276 278 279 280 281 282 283 284 284 284 284 284 284 283 283 283 284 285 287 289 291 292 294 295 296 296 297 297 298 298 299 299 299 299 300 302 303 304 304 304 300 289 276 268 267 271 276 279 283 287 291 293 295 296 297 298 300 304 308 312 313
257 256 256 259 263 266 267 267 268 269 269 269 269 270 271 273 274 275 275 275 275 275 276 277 278 280 281 282 281 281 280 280 280 281 282 283 283 284 284 283 284 285 287 288 289 290 291 292 293 295 296 296 296 296 297 296 295 295 295 297 299 301 301 301 298 289 278 271 270 274 278 282 286 290 292 293 294 294 295 297 300 303 307 310 311
261 260 259 259 260 263 266 267 267 267 267 268 269 270 272 274 275 275 275 275 275 275 276 277 277 279 282 283 282 280 278 277 278 280 281 282 282 283 283 282 283 284 285 286 286 286 287 289 290 292 293 294 296 297 297 297 295 294 294 294 295 296 297 298 295 288 280 274 274 278 283 287 290 292 293 294 294 294 295 297 300 303 306 309 310
263 263 262 261 261 262 264 266 267 267 267 268 269 270 271 273 274 274 274 274 274 274 274 275 275 278 280 281 278 276 276 277 278 279 280 281 281 280 280 280 281 282 282 282 283 284 285 287 289 290 292 295 297 298 299 299 298 297 297 297 296 295 295 295 292 287 281 277 278 283 288 292 294 295 296 296 295 295 296 297 299 302 305 306 306
Height
5793 5795 5796 5796 5797 5797 5798 5799 5799 5800 5800 5801 5801 5802 5802 5802 5802 5802 5803 5803 5802 5801 5801 5801 5802 5802 5802 5802 5802 5802 5802 5801 5801 5800 5800 5799 5798 5798 5796 5796 5794 5793 5792 5791 5790 5788 5786 5784 5782 5780 5778 5775 5772 5770 5767 5764 5761 5759 5756 5753 5750 5747 5744 5740 5736 5732 5729 5727 5724 5720 5717 5713 5709 5705 5702 5699 5694 5690 5686 5682 5678 5675 5672 5668 5664
5791 5792 5792 5793 5794 5794 5795 5796 5797 5797 5797 5798 5798 5799 5799 5799 5799 5800 5800 5800 5799 5799 5798 5799 5799 5799 5800 5800 5800 5800 5799 5799 5798 5798 5797 5796 5796 5794 5793 5792 5791 5790 5789 5787 5786 5784 5782 5780 5778 5776 5773 5771 5768 5766 5763 5760 5757 5754 5752 5749 5746 5743 5739 5736 5732 5728 5725 5722 5720 5716 5712 5709 5705 5702 5699 5695 5691 5687 5683 5679 5675 5672 5668 5664 5661
5787 5788 5789 5790 5791 5791 5792 5793 5794 5794 5794 5795 5796 5796 5796 5796 5796 5797 5798 5798 5797 5796 5796 5796 5796 5797 5797 5797 5797 5797 5796 5796 5795 5794 5794 5793 5792 5791 5790 5789 5788 5787 5785 5784 5782 5780 5778 5776 5774 5771 5769 5766 5764 5761 5759 5756 5753 5750 5747 5745 5741 5738 5735 5732 5729 5725 5722 5718 5716 5713 5709 5705 5702 5699 5695 5691 5687 5684 5680 5676 5672 5668 5664 5661 5657
5784 5785 5787 5787 5788 5789 5789 5790 5791 5791 5791 5792 5793 5793 5793 5793 5794 5795 5795 5795 5794 5794 5794 5794 5794 5794 5794 5794 5794 5794 5793 5793 5792 5791 5790 5789 5788 5787 5786 5785 5784 5783 5782 5780 5778 5775 5773 5772 5769 5767 5765 5762 5760 5757 5755 5752 5749 5746 5743 5740 5737 5734 5731 5728 5725 5722 5719 5715 5712 5709 5706 5703 5699 5696 5692 5688 5684 5680 5677 5673 5669 5665 5661 5657 5654
5781 5783 5783 5784 5785 5786 5786 5787 5788 5788 5789 5790 5790 5791 5791 5791 5791 5792 5792 5791 5791 5791 5791 5791 5791 5791 5791 5791 5791 5791 5790 5789 5788 5787 5786 5786 5785 5784 5783 5782 5781 5779 5778 5776 5774 5772 5770 5768 5765 5763 5761 5758 5756 5753 5751 5748 5745 5742 5739 5736 5733 5730 5727 5724 5722 5719 5716 5713 5709 5705 5702 5699 5696 5692 5688 5685 5681 5677 5674 5670 5666 5662 5658 5654 5650
5778 5780 5780 5781 5782 5783 5784 5784 5785 5785 5786 5787 5788 5788 5788 5788 5789 5789 5789 5789 5788 5788 5788 5788 5788 5788 5788 5788 5788 5787 5786 5785 5784 5784 5783 5782 5781 5780 5780 5779 5777 5776 5774 5772 5770 5768 5766 5764 5762 5759 5757 5754 5752 5749 5747 5744 5741 5738 5736 5732 5729 5726 5723 5721 5718 5715 5712 5709 5706 5702 5698 5696 5693 5689 5685 5681 5677 5674 5671 5668 5664 5659 5655 5651 5647
5775 5776 5777 5778 5779 5780 5781 5781 5782 5783 5784 5784 5785 5785 5785 5786 5786 5786 5786 5786 5785 5785 5785 5785 5785 5785 5785 5785 5784 5783 5782 5782 5781 5780 5780 5779 5777 5776 5776 5775 5773 5772 5770 5768 5766 5764 5762 5760 5758 5755 5753 5751 5748 5746 5743 5741 5738 5735 5732 5728 5725 5723 5720 5717 5714 5711 5708 5705 5701 5698 5695 5692 5689 5685 5681 5677 5674 5670 5668 5666 5662 5657 5652 5648 5644
5772 5773 5774 5775 5776 5777 5778 5778 5779 5780 5781 5781 5782 5782 5782 5783 5783 5783 5782 5782 5782 5782 5782 5782 5782 5782 5782 5782 5781 5780 5779 5778 5777 5777 5776 5775 5774 5773 5772 5770 5769 5768 5766 5764 5762 5760 5758 5756 5754 5752 5749 5747 5745 5742 5740 5737 5734 5731 5728 5725 5722 5719 5716 5714 5710 5707 5704 5701 5697 5694 5692 5689 5686 5682 5678 5675 5671 5668 5665 5662 5659 5655 5649 5644 5639
5769 5770 5771 5772 5773 5774 5775 5775 5776 5776 5778 5778 5778 5779 5779 5780 5780 5780 5780 5779 5779 5779 5780 5780 5780 5780 5779 5778 5778 5777 5776 5775 5774 5774 5773 5772 5770 5769 5768 5767 5765 5764 5762 5760 5759 5756 5754 5752 5750 5748 5745 5743 5741 5738 5736 5733 5730 5727 5724 5721 5718 5716 5713 5710 5707 5703 5700 5697 5694 5691 5688 5686 5683 5680 5676 5672 5669 5666 5662 5659 5655 5650 5646 5641 5635
5766 5767 5767 5768 5770 5771 5772 5773 5773 5773 5774 5775 5775 5776 5776 5777 5777 5777 5777 5777 5776 5777 5777 5777 5777 5777 5776 5775 5775 5774 5772 5771 5771 5770 5769 5768 5767 5766 5764 5763 5762 5760 5758 5757 5755 5753 5750 5749 5746 5744 5742 5739 5737 5734 5732 5729 5726 5723 5720 5717 5715 5712 5710 5707 5703 5700 5697 5694 5692 5689 5685 5683 5680 5676 5673 5669 5666 5663 5659 5655 5651 5647 5642 5637 5633
5762 5763 5764 5765 5766 5768 5769 5770 5770 5770 5771 5772 5772 5772 5773 5774 5774 5774 5774 5774 5774 5774 5774 5774 5774 5773 5772 5772 5771 5770 5769 5768 5767 5767 5765 5764 5763 5762 5761 5759 5758 5757 5755 5753 5751 5749 5747 5745 5743 5740 5738 5735 5733 5731 5728 5725 5722 5719 5716 5714 5712 5709 5706 5703 5700 5697 5693 5690 5688 5686 5683 5680 5677 5673 5670 5667 5663 5659 5655 5651 5647 5643 5638 5634 5630
5759 5760 5761 5762 5763 5765 5766 5766 5767 5767 5768 5769 5769 5769 5770 5771 5771 5771 5771 5771 5771 5771 5771 5771 5771 5770 5769 5769 5768 5767 5766 5764 5764 5763 5762 5760 5759 5758 5757 5755 5754 5753 5751 5750 5747 5745 5743 5741 5739 5736 5734 5731 5729 5727 5724 5721 5718 5715 5713 5711 5708 5705 5703 5700 5696 5693 5690 5687 5685 5683 5680 5677 5673 5670 5667 5664 5660 5656 5652 5648 5644 5640 5635 5630 5626
5756 5756 5757 5759 5761 5762 5762 5763 5763 5764 5765 5765 5766 5766 5767 5768 5768 5768 5767 5767 5768 5768 5768 5767 5767 5766 5766 5765 5764 5764 5763 5761 5760 5759 5758 5756 5755 5754 5753 5752 5751 5749 5747 5746 5743 5741 5739 5737 5735 5732 5730 5728 5725 5723 5720 5717 5714 5712 5709 5707 5705 5702 5699 5696 5693 5689 5687 5684 5682 5679 5677 5674 5670 5667 5663 5660 5656 5653 5649 5645 5641 5637 5632 5626 5622
5752 5753 5755 5756 5758 5759 5759 5759 5760 5761 5762 5762 5763 5763 5764 5765 5765 5764 5764 5764 5764 5765 5764 5764 5763 5763 5762 5761 5761 5760 5759 5758 5757 5756 5754 5753 5752 5751 5749 5748 5747 5745 5743 5741 5739 5737 5735 5733 5731 5728 5726 5724 5721 5719 5716 5713 5711 5708 5706 5703 5701 5698 5696 5693 5690 5686 5684 5681 5679 5676 5674 5671 5667 5663 5660 5656 5653 5649 5646 5642 5639 5634 5629 5623 5618
5748 5750 5752 5754 5755 5755 5755 5756 5757 5758 5758 5759 5759 5760 5761 5761 5761 5761 5760 5760 5761 5761 5761 5760 5760 5759 5758 5758 5757 5756 5755 5754 5753 5752 5750 5749 5748 5747 5746 5745 5743 5741 5739 5738 5736 5734 5732 5729 5727 5724 5722 5720 5718 5715 5712 5710 5707 5704 5702 5700 5698 5695 5692 5689 5686 5683 5681 5679 5676 5673 5670 5667 5664 5660 5656 5653 5650 5646 5642 5639 5635 5631 5627 5622 5616
5745 5747 5749 5751 5752 5752 5752 5753 5754 5754 5755 5755 5756 5757 5757 5758 5758 5757 5757 5757 5757 5757 5757 5756 5756 5756 5755 5754 5754 5753 5751 5749 5748 5747 5746 5745 5744 5743 5742 5741 5739 5737 5735 5734 5732 5730 5728 5726 5723 5720 5718 5716 5714 5711 5709 5706 5703 5701 5699 5697 5694 5692 5689 5686 5683 5680 5678 5676 5673 5670 5667 5664 5660 5656 5653 5650 5647 5644 5640 5636 5633 5629 5625 5621 5616
5742 5744 5746 5747 5748 5749 5749 5750 5750 5751 5751 5752 5752 5753 5754 5754 5754 5753 5753 5753 5753 5753 5753 5753 5752 5752 5752 5751 5750 5749 5747 5745 5743 5743 5741 5741 5740 5739 5738 5737 5735 5733 5731 5729 5728 5726 5724 5722 5720 5717 5715 5713 5710 5708 5705 5702 5700 5698 5696 5693 5691 5688 5686 5683 5680 5677 5675 5673 5670 5667 5664 5661 5657 5654 5651 5648 5645 5641 5638 5634 5630 5627 5623 5619 5614
5739 5741 5743 5744 5745 5745 5747 5747 5747 5747 5747 5747 5748 5749 5750 5750 5750 5750 5750 5750 5750 5749 5749 5749 5749 5749 5748 5747 5746 5745 5743 5741 5739 5738 5737 5736 5736 5735 5734 5733 5731 5728 5727 5725 5724 5722 5721 5718 5716 5713 5711 5709 5707 5704 5702 5699 5697 5695 5693 5690 5688 5685 5682 5680 5677 5675 5672 5670 5667 5664 5661 5658 5655 5652 5649 5646 5643 5639 5635 5631 5628 5624 5620 5616 5611
5735 5737 5739 5740 5741 5742 5743 5744 5744 5744 5743 5743 5744 5745 5746 5746 5746 5746 5746 5746 5746 5746 5746 5745 5745 5745 5744 5743 5742 5741 5739 5737 5736 5734 5733 5731 5731 5730 5730 5729 5727 5725 5723 5721 5720 5718 5717 5714 5712 5710 5708 5706 5703 5701 5698 5696 5694 5691 5689 5687 5685 5682 5679 5677 5674 5672 5669 5667 5664 5662 5659 5656 5654 5651 5648 5644 5640 5637 5633 5629 5625 5621 5617 5613 5608
5731 5733 5735 5736 5738 5739 5740 5740 5740 5740 5739 5739 5741 5742 5742 5742 5742 5742 5742 5743 5743 5743 5742 5742 5741 5740 5739 5738 5737 5736 5735 5733 5732 5730 5729 5727 5726 5726 5726 5725 5724 5722 5720 5718 5717 5715 5713 5711 5708 5706 5704 5702 5699 5697 5695 5693 5691 5688 5686 5684 5681 5679 5677 5674 5671 5669 5667 5664 5662 5659 5657 5655 5652 5649 5646 5643 5639 5635 5631 5626 5623 5619 5614 5610 5605
5727 5729 5731 5733 5734 5735 5736 5736 5736 5736 5736 5737 5737 5738 5738 5739 5739 5739 5739 5739 5739 5739 5739 5738 5737 5736 5735 5734 5733 5732 5730 5729 5727 5726 5725 5724 5722 5722 5721 5721 5719 5718 5716 5715 5713 5711 5709 5707 5705 5703 5701 5698 5696 5694 5692 5690 5687 5685 5683 5681 5679 5676 5674 5671 5669 5666 5664 5662 5659 5657 5655 5653 5650 5648 5645 5641 5638 5634 5629 5625 5621 5616 5612 5608 5603
5724 5726 5727 5728 5730 5730 5731 5732 5733 5733 5733 5734 5734 5735 5735 5736 5736 5736 5736 5736 5736 5735 5734 5734 5732 5731 5731 5730 5729 5727 5726 5724 5723 5722 5721 5720 5719 5718 5717 5717 5715 5713 5712 5711 5708 5706 5705 5703 5701 5699 5697 5695 5693 5690 5688 5686 5684 5682 5680 5678 5676 5673 5671 5668 5666 5664 5661 5659 5657 5655 5653 5651 5649 5646 5643 5640 5636 5633 5628 5624 5619 5614 5610 5605 5601
5720 5721 5723 5724 5725 5726 5726 5728 5729 5729 5730 5730 5731 5731 5732 5732 5732 5732 5732 5732 5732 5731 5730 5729 5728 5727 5726 5725 5724 5723 5722 5721 5720 5718 5717 5716 5715 5714 5713 5713 5711 5709 5708 5706 5704 5702 5701 5699 5698 5696 5693 5691 5689 5687 5685 5683 5681 5679 5677 5675 5673 5671 5668 5666 5663 5661 5659 5656 5654 5652 5651 5649 5647 5644 5641 5638 5635 5631 5627 5623 5618 5613 5608 5604 5599
5715 5717 5718 5720 5721 5721 5722 5723 5725 5725 5726 5727 5727 5727 5728 5728 5728 5728 5728 5728 5727 5726 5725 5725 5724 5723 5722 5721 5719 5718 5717 5717 5716 5714 5713 5712 5711 5710 5709 5708 5707 5706 5704 5702 5700 5699 5697 5695 5694 5692 5690 5687 5685 5683 5681 5679 5677 5675 5673 5672 5670 5668 5665 5663 5661 5658 5656 5654 5652 5650 5648 5646 5645 5642 5640 5637 5633 5629 5625 5621 5617 5613 5608 5603 5598
5711 5713 5714 5715 5716 5717 5718 5720 5721 5722 5722 5723 5723 5724 5724 5724 5724 5724 5724 5723 5722 5721 5721 5720 5719 5718 5717 5716 5715 5714 5713 5712 5711 5710 5709 5708 5707 5706 5705 5704 5703 5702 5700 5698 5697 5695 5693 5691 5689 5688 5686 5684 5681 5679 5677 5676 5674 5672 5670 5668 5667 5665 5663 5660 5658 5655 5653 5651 5649 5647 5645 5644 5642 5640 5638 5634 5631 5627 5624 5620 5616 5612 5608 5603 5598
5707 5708 5710 5711 5712 5713 5715 5716 5717 5718 5719 5719 5720 5720 5720 5720 5720 5720 5719 5718 5717 5716 5716 5715 5714 5713 5712 5711 5710 5709 5708 5707 5706 5705 5704 5703 5703 5702 5701 5700 5699 5698 5696 5695 5693 5691 5690 5688 5685 5683 5682 5680 5678 5676 5674 5672 5670 5669 5667 5665 5663 5662 5660 5657 5655 5653 5650 5648 5647 5645 5643 5641 5640 5638 5635 5632 5629 5626 5622 5619 5615 5611 5607 5603 5598
5703 5704 5705 5706 5708 5709 5711 5712 5713 5714 5714 5715 5715 5716 5716 5715 5715 5715 5714 5713 5712 5711 5711 5709 5709 5708 5707 5706 5706 5705 5704 5703 5702 5701 5700 5699 5699 5698 5697 5696 5695 5694 5692 5691 5689 5688 5686 5683 5681 5679 5677 5676 5674 5672 5670 5668 5667 5665 5663 5662 5660 5658 5656 5654 5652 5650 5648 5646 5644 5642 5640 5639 5638 5636 5633 5630 5627 5624 5621 5617 5613 5609 5605 5602 5598
5698 5699 5701 5702 5704 5705 5707 5708 5709 5709 5710 5711 5711 5711 5711 5711 5710 5710 5709 5708 5707 5706 5705 5704 5703 5702 5702 5701 5701 5700 5699 5698 5697 5697 5696 5695 5695 5694 5693 5692 5691 5689 5688 5687 5685 5684 5681 5679 5677 5675 5674 5672 5670 5668 5666 5665 5663 5661 5660 5658 5657 5655 5653 5651 5649 5647 5645 5643 5641 5639 5638 5637 5635 5633 5631 5628 5626 5622 5619 5616 5611 5607 5604 5600 5597
5695 5696 5697 5698 5700 5701 5702 5703 5704 5705 5706 5706 5707 5707 5706 5705 5705 5704 5703 5702 5701 5701 5700 5699 5698 5698 5697 5696 5696 5695 5694 5693 5693 5692 5691 5691 5690 5690 5688 5687 5686 5685 5684 5683 5681 5679 5677 5675 5673 5671 5670 5668 5666 5664 5662 5661 5659 5658 5656 5654 5653 5651 5649 5647 5645 5643 5641 5640 5638 5637 5635 5634 5632 5630 5628 5626 5623 5621 5618 5614 5610 5606 5603 5599 5595
5692 5693 5693 5695 5696 5697 5698 5699 5700 5700 5701 5702 5702 5702 5701 5700 5699 5698 5697 5696 5696 5696 5695 5694 5694 5693 5693 5692 5691 5691 5690 5689 5688 5687 5687 5686 5686 5685 5684 5683 5682 5680 5679 5678 5677 5675 5673 5671 5669 5668 5666 5664 5662 5660 5659 5657 5655 5654 5652 5650 5649 5647 5646 5644 5642 5640 5638 5636 5635 5634 5632 5630 5629 5628 5626 5624 5621 5618 5615 5612 5608 5605 5601 5598 5594
5689 5689 5690 5691 5692 5693 5693 5694 5695 5696 5697 5697 5697 5696 5696 5695 5694 5693 5693 5692 5691 5691 5690 5690 5689 5689 5688 5687 5687 5687 5685 5684 5683 5683 5682 5682 5682 5681 5679 5678 5677 5676 5675 5674 5672 5670 5669 5667 5665 5664 5662 5660 5658 5656 5655 5653 5651 5650 5648 5647 5645 5644 5642 5640 5638 5636 5635 5633 5632 5630 5629 5627 5626 5625 5623 5621 5619 5616 5613 5610 5607 5604 5600 5596 5593
5685 5685 5686 5687 5687 5688 5689 5690 5690 5691 5691 5691 5691 5691 5690 5690 5689 5688 5688 5688 5687 5687 5686 5685 5684 5684 5683 5683 5683 5682 5681 5680 5679 5678 5678 5678 5677 5676 5675 5674 5672 5671 5670 5669 5667 5666 5665 5663 5661 5660 5658 5656 5654 5652 5651 5649 5647 5646 5644 5643 5641 5640 5638 5636 5635 5633 5631 5630 5628 5627 5625 5624 5623 5622 5620 5618 5617 5614 5611 5608 5606 5603 5599 5595 5591
5681 5681 5682 5682 5682 5683 5683 5684 5685 5686 5686 5685 5685 5685 5685 5684 5684 5683 5684 5684 5683 5682 5681 5680 5680 5680 5679 5679 5679 5678 5677 5675 5674 5673 5673 5673 5672 5671 5670 5669 5668 5667 5665 5664 5663 5662 5660 5659 5657 5655 5654 5652 5650 5648 5646 5645 5643 5641 5640 5639 5637 5636 5634 5633 5631 5629 5627 5626 5625 5623 5622 5621 5620 5619 5617 5616 5614 5612 5609 5606 5604 5601 5598 5594 5590
5677 5677 5678 5677 5677 5677 5678 5679 5680 5680 5680 5680 5679 5679 5679 5679 5679 5679 5679 5679 5678 5678 5677 5676 5676 5675 5675 5675 5674 5673 5672 5671 5670 5669 5669 5668 5668 5667 5666 5664 5663 5662 5661 5660 5659 5657 5656 5654 5653 5651 5649 5647 5646 5644 5642 5640 5639 5637 5636 5634 5633 5632 5630 5629 5627 5625 5623 5622 5621 5620 5618 5617 5616 5615 5614 5613 5611 5609 5607 5604 5602 5599 5596 5593 5589
5673 5673 5673 5673 5673 5673 5674 5675 5675 5675 5674 5674 5673 5673 5674 5674 5674 5674 5674 5674 5674 5673 5672 5671 5671 5671 5670 5670 5669 5668 5667 5666 5665 5665 5664 5664 5663 5662 5661 5660 5659 5657 5656 5655 5654 5653 5651 5650 5648 5646 5645 5643 5641 5640 5638 5636 5635 5633 5632 5630 5629 5628 5626 5625 5623 5621 5620 5618 5617 5616 5615 5614 5613 5612 5611 5610 5608 5607 5605 5602 5600 5597 5594 5591 5588
5668 5668 5668 5668 5668 5668 5669 5670 5670 5670 5669 5669 5669 5669 5669 5669 5670 5669 5669 5669 5669 5668 5667 5667 5667 5666 5665 5665 5664 5663 5662 5662 5661 5660 5660 5659 5658 5658 5657 5656 5654 5653 5652 5651 5650 5648 5647 5645 5643 5642 5640 5639 5637 5635 5634 5632 5630 5629 5628 5626 5625 5623 5622 5620 5618 5617 5616 5615 5613 5612 5611 5610 5610 5609 5608 5607 5606 5604 5602 5600 5598 5595 5592 5589 5586
5663 5663 5663 5663 5663 5663 5664 5665 5665 5665 5665 5666 5666 5666 5665 5665 5665 5665 5665 5664 5663 5663 5663 5662 5662 5661 5660 5660 5659 5658 5658 5657 5656 5656 5655 5655 5654 5653 5652 5651 5650 5648 5647 5646 5645 5644 5642 5640 5639 5637 5636 5634 5632 5630 5629 5627 5626 5624 5623 5622 5621 5619 5618 5616 5615 5613 5612 5611 5609 5609 5608 5607 5606 5606 5605 5604 5603 5601 5600 5598 5595 5593 5590 5588 5585
5657 5657 5658 5658 5658 5658 5659 5660 5660 5660 5660 5660 5661 5661 5660 5660 5660 5660 5660 5659 5658 5658 5658 5657 5657 5656 5655 5654 5654 5654 5653 5652 5652 5651 5651 5651 5650 5649 5648 5646 5645 5644 5642 5641 5640 5639 5637 5635 5634 5632 5630 5629 5627 5625 5624 5622 5621 5620 5619 5617 5616 5615 5614 5612 5610 5609 5608 5606 5605 5605 5604 5603 5603 5602 5602 5601 5600 5599 5597 5595 5593 5591 5588 5586 5583
5652 5652 5652 5653 5653 5653 5654 5654 5655 5655 5655 5654 5655 5655 5655 5655 5655 5655 5654 5654 5653 5653 5652 5652 5652 5651 5650 5650 5649 5649 5648 5647 5647 5647 5647 5646 5645 5644 5643 5641 5640 5639 5637 5636 5635 5633 5632 5630 5628 5627 5625 5623 5621 5620 5619 5618 5617 5615 5614 5613 5612 5610 5609 5608 5606 5605 5604 5602 5602 5601 5601 5600 5599 5599 5598 5598 5597 5596 5595 5593 5590 5588 5586 5584 5582
5646 5647 5647 5647 5647 5648 5649 5649 5649 5649 5649 5649 5649 5650 5650 5650 5650 5649 5649 5648 5648 5648 5648 5647 5646 5646 5646 5645 5645 5644 5643 5642 5642 5642 5642 5641 5640 5639 5638 5636 5635 5634 5633 5631 5630 5628 5626 5625 5623 5621 5620 5618 5616 5615 5615 5614 5612 5611 5610 5609 5607 5606 5604 5603 5602 5601 5599 5598 5598 5598 5597 5597 5597 5596 5595 5595 5594 5593 5592 5590 5588 5586 5584 5582 5580
5641 5641 5641 5642 5642 5642 5643 5643 5643 5643 5644 5644 5644 5644 5644 5644 5644 5644 5644 5644 5643 5643 5643 5643 5642 5641 5641 5641 5640 5639 5638 5638 5638 5637 5636 5635 5634 5633 5632 5631 5630 5629 5627 5626 5625 5623 5622 5620 5618 5616 5615 5613 5612 5611 5610 5610 5608 5607 5605 5604 5603 5601 5600 5599 5598 5597 5595 5594 5594 5594 5594 5594 5594 5593 5593 5592 5591 5590 5589 5587 5586 5584 5582 5580 5578
5635 5635 5636 5636 5636 5636 5637 5637 5637 5637 5638 5638 5638 5638 5639 5639 5639 5638 5638 5639 5638 5638 5638 5638 5638 5636 5636 5636 5635 5634 5634 5633 5633 5632 5631 5630 5629 5628 5627 5626 5625 5624 5622 5621 5620 5618 5617 5615 5613 5612 5610 5609 5608 5607 5606 5605 5604 5603 5601 5600 5598 5597 5595 5594 5593 5593 5591 5590 5590 5591 5591 5591 5591 5590 5590 5589 5588 5587 5586 5585 5583 5581 5580 5578 5576
5630 5630 5630 5630 5630 5630 5631 5632 5632 5632 5632 5633 5633 5633 5633 5633 5633 5633 5633 5634 5633 5633 5633 5633 5633 5632 5632 5631 5630 5629 5629 5628 5628 5627 5626 5625 5624 5623 5622 5621 5620 5619 5617 5616 5615 5613 5612 5610 5609 5607 5606 5605 5604 5603 5602 5601 5600 5599 5597 5595 5594 5592 5591 5589 5589 5588 5587 5586 5586 5587 5587 5588 5587 5587 5586 5586 5585 5584 5583 5582 5580 5579 5577 5575 5573
5624 5624 5624 5625 5625 5625 5626 5626 5626 5627 5627 5628 5628 5628 5628 5628 5628 5629 5629 5628 5629 5629 5628 5628 5628 5628 5627 5626 5625 5624 5624 5624 5623 5622 5621 5620 5619 5618 5617 5616 5615 5614 5613 5611 5610 5608 5607 5606 5605 5603 5602 5601 5600 5599 5598 5597 5596 5595 5593 5591 5589 5588 5586 5585 5584 5583 5583 5582 5582 5583 5584 5584 5584 5583 5583 5583 5582 5581 5580 5579 5577 5576 5574 5573 5571
5619 5619 5619 5620 5620 5620 5620 5621 5621 5622 5622 5622 5623 5623 5623 5623 5623 5623 5623 5623 5623 5623 5624 5624 5623 5623 5622 5621 5620 5619 5619 5618 5618 5617 5616 5614 5613 5612 5611 5611 5610 5609 5608 5606 5605 5604 5603 5601 5600 5599 5598 5597 5596 5595 5594 5593 5592 5591 5589 5587 5585 5584 5582 5581 5580 5579 5579 5579 5579 5580 5581 5581 5581 5580 5579 5579 5579 5578 5577 5576 5574 5573 5572 5570 5568
5614 5614 5614 5615 5615 5615 5616 5616 5616 5617 5617 5617 5617 5618 5618 5618 5618 5618 5618 5618 5618 5618 5618 5618 5618 5618 5616 5615 5615 5614 5614 5613 5612 5611 5610 5609 5608 5607 5606 5605 5605 5604 5603 5601 5600 5599 5598 5597 5596 5595 5594 5593 5592 5591 5590 5589 5588 5586 5585 5583 5581 5580 5578 5577 5576 5575 5575 5575 5576 5577 5577 5578 5577 5577 5576 5575 5575 5574 5574 5572 5571 5570 5569 5567 5565
5610 5610 5610 5609 5610 5610 5611 5611 5611 5611 5612 5612 5612 5612 5613 5613 5613 5613 5613 5613 5613 5613 5613 5612 5612 5611 5611 5610 5610 5610 5609 5608 5606 5605 5605 5604 5603 5603 5602 5601 5600 5599 5598 5597 5595 5594 5593 5593 5592 5591 5590 5589 5588 5587 5586 5585 5583 5582 5580 5579 5578 5576 5575 5573 5572 5572 5571 5572 5572 5573 5574 5574 5574 5574 5573 5572 5571 5571 5570 5569 5568 5567 5565 5564 5562
5605 5606 5605 5605 5605 5605 5606 5606 5606 5607 5607 5607 5607 5607 5607 5607 5608 5608 5608 5608 5608 5608 5607 5607 5606 5605 5605 5605 5604 5604 5603 5602 5601 5600 5600 5599 5599 5598 5597 5596 5595 5594 5593 5592 5591 5590 5589 5588 5588 5587 5586 5585 5584 5583 5582 5580 5579 5577 5576 5575 5573 5572 5571 5570 5569 5568 5568 5569 5570 5570 5571 5571 5571 5571 5570 5569 5568 5567 5567 5566 5564 5563 5562 5560 5559
5601 5601 5602 5601 5601 5601 5601 5602 5602 5603 5603 5602 5602 5602 5603 5603 5603 5603 5603 5603 5603 5603 5602 5602 5602 5601 5600 5599 5598 5598 5598 5597 5596 5595 5595 5595 5594 5593 5592 5591 5590 5589 5588 5587 5586 5586 5585 5584 5583 5583 5582 5581 5580 5579 5577 5576 5574 5573 5572 5571 5569 5568 5567 5566 5566 5565 5565 5566 5567 5567 5567 5568 5568 5567 5567 5566 5565 5564 5563 5562 5561 5559 5558 5557 5555
5597 5597 5597 5597 5597 5596 5596 5597 5598 5598 5598 5598 5597 5598 5598 5598 5598 5598 5598 5598 5598 5598 5597 5597 5597 5597 5596 5594 5593 5592 5592 5592 5591 5591 5590 5590 5589 5589 5587 5586 5585 5585 5584 5583 5582 5581 5581 5580 5579 5578 5577 5576 5575 5574 5573 5571 5569 5568 5567 5566 5565 5564 5563 5562 5562 5562 5562 5562 5563 5564 5564 5564 5564 5564 5563 5562 5561 5560 5559 5558 5557 5555 5554 5553 5552
5592 5592 5592 5592 5592 5592 5592 5592 5592 5593 5593 5593 5592 5592 5593 5593 5592 5592 5592 5592 5591 5591 5591 5591 5591 5591 5590 5590 5589 5588 5587 5587 5587 5586 5585 5584 5584 5584 5583 5582 5581 5580 5580 5579 5578 5577 5576 5576 5575 5574 5573 5572 5571 5570 5568 5566 5565 5564 5563 5562 5561 5560 5559 5558 5558 5558 5558 5559 5560 5560 5560 5560 5560 5559 5558 5558 5557 5556 5555 5554 5553 5552 5551 5549 5548